Regional Weather Roundup
Issued by NWS Sioux Falls, SD

Home | Current Version | Previous Version | Graphics & Text | Print | Product List | Glossary Off
Versions: 1 2 3 4 5 6 7 8 9 10 11 12 13 14 15 16 17 18 19 20 21 22 23 24 25 26 27 28 29 30 31 32 33 34 35 36 37 38 39 40 41 42 43 44 45 46 47 48 49 50

000
ASUS43 KFSD 050602
RWRFSD

WEATHER ROUNDUP FOR SE SOUTH DAKOTA/SW MINNESOTA/NW IOWA
NATIONAL WEATHER SERVICE SIOUX FALLS SD
100 AM CDT SUN JUL 05 2015

NOTE: "FAIR" INDICATES FEW OR NO CLOUDS BELOW 12,000 FEET WITH NO
SIGNIFICANT WEATHER AND OR OBSTRUCTIONS TO VISIBILITY.


SDZ038>040-050-052>070-050700-
SOUTHEAST SOUTH DAKOTA

CITY           SKY/WX    TMP DP  RH WIND       PRES   REMARKS
BROOKINGS      PTCLDY    70  63  78 S14       29.89S
CHAMBERLAIN    NOT AVBL
HURON          CLOUDY    73  66  78 SE17G25   29.78S
6HR MIN TEMP:  73; 6HR MAX TEMP:  82;

MADISON        FAIR      68  68 100 S15G22    29.88S
MITCHELL       CLOUDY    73  66  78 S14       29.83R
6HR MIN TEMP:  72; 6HR MAX TEMP:  83;

SIOUX FALLS    PTCLDY    71  62  73 S14       29.88F
6HR MIN TEMP:  71; 6HR MAX TEMP:  79;

WINNER         FAIR      79  64  60 S22G29    29.75F
YANKTON        MOCLDY    70  64  83 SE8       29.87S
$$

MNZ071-072-080-081-089-090-097-098-050700-
SOUTHWEST MINNESOTA

CITY           SKY/WX    TMP DP  RH WIND       PRES   REMARKS
FAIRMONT       CLEAR     63  55  77 S8        29.95F
JACKSON        CLEAR     66  61  82 S10       29.95F
MARSHALL       PTCLDY    68  59  73 S12         N/A
6HR MIN TEMP:  66; 6HR MAX TEMP:  81;

MONTEVIDEO     PTCLDY    68  64  88 S8        29.86F
PIPESTONE      PTCLDY    68  63  83 S9        29.90F
REDWOOD FALLS  CLEAR     66  61  84 S8        29.89F
TRACY          CLEAR     69  62  76 S13       29.89F
WINDOM         CLEAR     66  61  82 S7        29.93F
WORTHINGTON    CLEAR     66  57  72 S10       29.93F
$$

IAZ001>003-012>014-020>022-031-032-NEZ013-014-SDZ071-050700-
NORTHWEST IOWA

CITY           SKY/WX    TMP DP  RH WIND       PRES   REMARKS
DENISON        MOCLDY    68  61  77 S9G15     29.96R
ESTHERVILLE    CLEAR     62  60  93 S9        29.95F
SIOUX CITY     PTCLDY    69  62  78 SE8       29.92F
6HR MIN TEMP:  67; 6HR MAX TEMP:  80;

SPENCER        CLEAR     64  58  80 S8        29.95F
6HR MIN TEMP:  63; 6HR MAX TEMP:  80;

$$

ABBREVIATIONS USED IN REMARKS
   TC - TEMPERATURE IN CELSIUS
  WCI - WIND CHILL INDEX
   HX - HEAT INDEX
  VSB - VISIBILITY




USA.gov is the U.S. government's official web portal to all federal, state and local government web resources and services.